,,Stat6,,Stat2,,Stat8,,Stat9,,Stat10,,Wind1,,Wind1,
time,status,PA1M_AVG,status,PR1M_SUM,status,RH1M_AVG,status,SR1M_AVG,status,TA1M_AVG,status,W1dAve1m,status,W1sAve1m,
2006-10-08, 07:00:01,VALID,920.31,VALID,0,VALID,100,VALID,0,VALID,20.3755,VALID,261,VALID,0.063244,
2006-10-08, 07:01:00,VALID,920.308,VALID,0,VALID,100,VALID,0,VALID,20.3604,VALID,261,VALID,0.0321378,
2006-10-08, 07:02:00,VALID,920.301,VALID,0,VALID,100,VALID,0,VALID,20.344,VALID,261,VALID,0,
2006-10-08, 07:03:00,VALID,920.306,VALID,0,VALID,100,VALID,0,VALID,20.3512,VALID,261,VALID,0.00887784,
2006-10-08, 07:04:00,VALID,920.289,VALID,0,VALID,100,VALID,-0.0339617,VALID,20.3249,VALID,261,VALID,0.294513,
2006-10-08, 07:05:00,VALID,920.282,VALID,0,VALID,100,VALID,0,VALID,20.3286,VALID,261,VALID,0.298874,
2006-10-08, 07:06:00,VALID,920.277,VALID,0,VALID,100,VALID,-0.0169808,VALID,20.3249,VALID,261,VALID,0.416667,
2006-10-08, 07:07:01,VALID,920.267,VALID,0,VALID,100,VALID,0,VALID,20.3318,VALID,261,VALID,0.346912,
2006-10-08, 07:08:00,VALID,920.258,VALID,0,VALID,100,VALID,0,VALID,20.3015,VALID,261,VALID,0.441134,
2006-10-08, 07:09:00,VALID,920.256,VALID,0,VALID,100,VALID,0,VALID,20.3219,VALID,261,VALID,0.55649,
2006-10-08, 07:10:00,VALID,920.245,VALID,0,VALID,100,VALID,0,VALID,20.3023,VALID,261,VALID,0.542111,
2006-10-08, 07:11:00,VALID,920.247,VALID,0,VALID,100,VALID,0,VALID,20.2928,VALID,261,VALID,0.435369,
2006-10-08, 07:12:00,VALID,920.231,VALID,0,VALID,100,VALID,0,VALID,20.2668,VALID,261,VALID,0.203869,
2006-10-08, 07:13:00,VALID,920.198,VALID,0,VALID,100,VALID,0,VALID,20.2474,VALID,261,VALID,0.198946,
2006-10-08, 07:14:00,VALID,920.178,VALID,0,VALID,100,VALID,0,VALID,20.2288,VALID,261,VALID,0.322049,
2006-10-08, 07:15:00,VALID,920.146,VALID,0,VALID,100,VALID,0,VALID,20.2025,VALID,261,VALID,0.27096,
2006-10-08, 07:16:00,VALID,920.133,VALID,0,VALID,100,VALID,-0.0169808,VALID,20.1868,VALID,261,VALID,0.0227108,
2006-10-08, 07:17:00,VALID,920.107,VALID,0,VALID,100,VALID,0,VALID,20.1831,VALID,261,VALID,0.140067,
2006-10-08, 07:18:01,VALID,920.11,VALID,0,VALID,100,VALID,0,VALID,20.1702,VALID,261,VALID,0.0227273,
2006-10-08, 07:19:00,VALID,920.103,VALID,0,VALID,100,VALID,0,VALID,20.1479,VALID,261,VALID,0,
2006-10-08, 07:20:00,VALID,920.087,VALID,0,VALID,100,VALID,0,VALID,20.128,VALID,261,VALID,0.000952744,
2006-10-08, 07:21:00,VALID,920.064,VALID,0,VALID,100,VALID,-0.0169808,VALID,20.1151,VALID,261,VALID,0.0132813,
2006-10-08, 07:22:00,VALID,920.02,VALID,0,VALID,100,VALID,0.0169808,VALID,20.1027,VALID,261,VALID,0.0361555,
2006-10-08, 07:23:00,VALID,919.998,VALID,0,VALID,100,VALID,0,VALID,20.0831,VALID,261,VALID,0.0316134,
2006-10-08, 07:24:00,VALID,919.971,VALID,0,VALID,100,VALID,-0.0169808,VALID,20.0411,VALID,261,VALID,0.292468,
2006-10-08, 07:25:00,VALID,919.944,VALID,0,VALID,100,VALID,-0.0169808,VALID,20.0118,VALID,261,VALID,0.357376,
2006-10-08, 07:26:01,VALID,919.934,VALID,0,VALID,100,VALID,0,VALID,20.0029,VALID,261,VALID,0.314406,
2006-10-08, 07:27:01,VALID,919.926,VALID,0,VALID,100,VALID,0.0169808,VALID,19.9701,VALID,261,VALID,0.0446429,
2006-10-08, 07:28:00,VALID,919.938,VALID,0,VALID,100,VALID,0,VALID,19.9515,VALID,261,VALID,0,
2006-10-08, 07:29:00,VALID,919.949,VALID,0,VALID,100,VALID,0,VALID,19.9157,VALID,261,VALID,0.00106534,
2006-10-08, 07:30:00,VALID,919.94,VALID,0,VALID,100,VALID,-0.0169808,VALID,19.9061,VALID,261,VALID,0,
2006-10-08, 07:31:00,VALID,919.928,VALID,0,VALID,100,VALID,0,VALID,19.9068,VALID,261,VALID,0,
2006-10-08, 07:32:00,VALID,919.905,VALID,0,VALID,100,VALID,-0.0339617,VALID,19.8902,VALID,261,VALID,0,
2006-10-08, 07:33:00,VALID,919.893,VALID,0,VALID,100,VALID,0,VALID,19.8805,VALID,261,VALID,0,
2006-10-08, 07:34:00,VALID,919.877,VALID,0,VALID,100,VALID,0,VALID,19.8641,VALID,261,VALID,0,
2006-10-08, 07:35:00,VALID,919.861,VALID,0,VALID,100,VALID,-0.0169808,VALID,19.8614,VALID,261,VALID,0,
2006-10-08, 07:36:00,VALID,919.841,VALID,0,VALID,100,VALID,0,VALID,19.8477,VALID,261,VALID,0,
2006-10-08, 07:37:00,VALID,919.811,VALID,0,VALID,100,VALID,-0.0169808,VALID,19.8321,VALID,261,VALID,0,
2006-10-08, 07:38:00,VALID,919.798,VALID,0,VALID,100,VALID,-0.0169808,VALID,19.7866,VALID,261,VALID,0,
2006-10-08, 07:39:00,VALID,919.751,VALID,0,VALID,100,VALID,0.101885,VALID,19.7725,VALID,261,VALID,0,
2006-10-08, 07:40:00,VALID,919.724,VALID,0,VALID,100,VALID,0.0509425,VALID,19.7757,VALID,261,VALID,0,
2006-10-08, 07:41:01,VALID,919.705,VALID,0,VALID,100,VALID,0.101885,VALID,19.7665,VALID,261,VALID,0,
2006-10-08, 07:42:00,VALID,919.697,VALID,0,VALID,100,VALID,0.101885,VALID,19.7539,VALID,261,VALID,0,
2006-10-08, 07:43:00,VALID,919.676,VALID,0,VALID,100,VALID,0.0679233,VALID,19.7343,VALID,261,VALID,0,
2006-10-08, 07:44:00,VALID,919.67,VALID,0,VALID,100,VALID,0.0679233,VALID,19.7405,VALID,261,VALID,0,
2006-10-08, 07:45:00,VALID,919.659,VALID,0,VALID,100,VALID,0.0509425,VALID,19.7469,VALID,261,VALID,0,
2006-10-08, 07:46:00,VALID,919.657,VALID,0,VALID,100,VALID,0.0339617,VALID,19.7569,VALID,261,VALID,0,
2006-10-08, 07:47:01,VALID,919.654,VALID,0,VALID,100,VALID,0.0509425,VALID,19.7698,VALID,261,VALID,0,
2006-10-08, 07:48:00,VALID,919.647,VALID,0,VALID,100,VALID,0.0509425,VALID,19.7665,VALID,261,VALID,0,
2006-10-08, 07:49:00,VALID,919.644,VALID,0,VALID,100,VALID,0.0849042,VALID,19.7698,VALID,261,VALID,0,
2006-10-08, 07:50:00,VALID,919.645,VALID,0,VALID,100,VALID,0.0849042,VALID,19.7663,VALID,261,VALID,0,
2006-10-08, 07:51:01,VALID,919.634,VALID,0,VALID,100,VALID,0.0509425,VALID,19.7797,VALID,261,VALID,0,
2006-10-08, 07:52:01,VALID,919.65,VALID,0,VALID,100,VALID,0,VALID,19.7765,VALID,261,VALID,0,
2006-10-08, 07:53:00,VALID,919.653,VALID,0,VALID,100,VALID,-0.0849042,VALID,19.7909,VALID,261,VALID,0,
2006-10-08, 07:54:00,VALID,919.651,VALID,0,VALID,100,VALID,-0.0849042,VALID,19.8199,VALID,261,VALID,0,
2006-10-08, 07:55:00,VALID,919.649,VALID,0,VALID,100,VALID,-0.0339617,VALID,19.8259,VALID,261,VALID,0.0293445,
2006-10-08, 07:56:00,VALID,919.636,VALID,0,VALID,100,VALID,-0.0339617,VALID,19.8356,VALID,260,VALID,0.139101,
2006-10-08, 07:57:00,VALID,919.621,VALID,0,VALID,100,VALID,-0.0339617,VALID,19.8326,VALID,260,VALID,0.114383,
2006-10-08, 07:58:00,VALID,919.598,VALID,0,VALID,100,VALID,-0.0849042,VALID,19.8385,VALID,260,VALID,0,
2006-10-08, 07:59:00,VALID,919.6,VALID,0,VALID,100,VALID,-0.0339617,VALID,19.8425,VALID,260,VALID,0,
2006-10-08, 08:00:00,VALID,919.578,VALID,0,VALID,100,VALID,-0.0509425,VALID,19.839,VALID,260,VALID,0,
2006-10-08, 08:01:00,VALID,919.571,VALID,0,VALID,100,VALID,-0.0509425,VALID,19.8197,VALID,260,VALID,0,
2006-10-08, 08:02:00,VALID,919.553,VALID,0,VALID,100,VALID,-0.0679233,VALID,19.8006,VALID,260,VALID,0.0232558,
2006-10-08, 08:03:01,VALID,919.558,VALID,0,VALID,100,VALID,-0.0509425,VALID,19.7616,VALID,260,VALID,0,
2006-10-08, 08:04:00,VALID,919.552,VALID,0,VALID,100,VALID,-0.0169808,VALID,19.7422,VALID,260,VALID,0,
2006-10-08, 08:05:00,VALID,919.553,VALID,0,VALID,100,VALID,-0.0339617,VALID,19.7164,VALID,261,VALID,0,
2006-10-08, 08:06:00,VALID,919.545,VALID,0,VALID,100,VALID,-0.0679233,VALID,19.707,VALID,260,VALID,0,
2006-10-08, 08:07:00,VALID,919.533,VALID,0,VALID,100,VALID,0,VALID,19.6613,VALID,260,VALID,0,
2006-10-08, 08:08:01,VALID,919.534,VALID,0,VALID,100,VALID,0.0849042,VALID,19.6245,VALID,260,VALID,0.194382,
2006-10-08, 08:09:00,VALID,919.525,VALID,0,VALID,100,VALID,0.0169808,VALID,19.5925,VALID,260,VALID,0,
2006-10-08, 08:10:00,VALID,919.511,VALID,0,VALID,100,VALID,0.0509425,VALID,19.5506,VALID,260,VALID,0,
2006-10-08, 08:11:01,VALID,919.498,VALID,0,VALID,100,VALID,0.0339617,VALID,19.5248,VALID,260,VALID,0.0232558,
2006-10-08, 08:12:01,VALID,919.49,VALID,0,VALID,100,VALID,0.0509425,VALID,19.4925,VALID,260,VALID,0.193004,
2006-10-08, 08:13:00,VALID,919.482,VALID,0,VALID,100,VALID,0.0509425,VALID,19.4769,VALID,260,VALID,0.232465,
2006-10-08, 08:14:00,VALID,919.47,VALID,0,VALID,100,VALID,0.0679233,VALID,19.4414,VALID,260,VALID,0.181402,
2006-10-08, 08:15:00,VALID,919.47,VALID,0,VALID,100,VALID,0.0509425,VALID,19.4217,VALID,260,VALID,0.384411,
2006-10-08, 08:16:00,VALID,919.459,VALID,0,VALID,100,VALID,0.0339617,VALID,19.3992,VALID,260,VALID,0.341273,
2006-10-08, 08:17:00,VALID,919.45,VALID,0,VALID,100,VALID,0.0679233,VALID,19.3925,VALID,260,VALID,0.288021,
2006-10-08, 08:18:00,VALID,919.433,VALID,0,VALID,100,VALID,0.0509425,VALID,19.3771,VALID,260,VALID,0.18285,
2006-10-08, 08:19:00,VALID,919.423,VALID,0,VALID,100,VALID,0.0339617,VALID,19.3379,VALID,260,VALID,0.15696,
2006-10-08, 08:20:01,VALID,919.411,VALID,0,VALID,100,VALID,0.0169808,VALID,19.2892,VALID,260,VALID,0.215199,
2006-10-08, 08:21:00,VALID,919.399,VALID,0,VALID,100,VALID,0,VALID,19.2676,VALID,260,VALID,0.373666,
2006-10-08, 08:22:01,VALID,919.394,VALID,0,VALID,100,VALID,0.0339617,VALID,19.2123,VALID,260,VALID,0.374645,
2006-10-08, 08:23:00,VALID,919.388,VALID,0,VALID,100,VALID,-0.0169808,VALID,19.207,VALID,260,VALID,0.0539773,
2006-10-08, 08:24:00,VALID,919.386,VALID,0,VALID,100,VALID,0.0169808,VALID,19.21,VALID,260,VALID,0,
2006-10-08, 08:25:00,VALID,919.383,VALID,0,VALID,100,VALID,0,VALID,19.21,VALID,260,VALID,0,
2006-10-08, 08:26:00,VALID,919.372,VALID,0,VALID,100,VALID,0,VALID,19.2068,VALID,260,VALID,0,
2006-10-08, 08:27:00,VALID,919.359,VALID,0,VALID,100,VALID,-0.0339617,VALID,19.2269,VALID,260,VALID,0,
2006-10-08, 08:28:01,VALID,919.34,VALID,0,VALID,100,VALID,-0.0169808,VALID,19.2264,VALID,260,VALID,0,
2006-10-08, 08:29:01,VALID,919.325,VALID,0,VALID,100,VALID,-0.0169808,VALID,19.2261,VALID,260,VALID,0,
2006-10-08, 08:30:00,VALID,919.313,VALID,0,VALID,100,VALID,0,VALID,19.2557,VALID,260,VALID,0,
2006-10-08, 08:31:00,VALID,919.301,VALID,0,VALID,100,VALID,-0.0169808,VALID,19.2619,VALID,260,VALID,0,
2006-10-08, 08:32:00,VALID,919.286,VALID,0,VALID,100,VALID,0,VALID,19.2974,VALID,260,VALID,0,
2006-10-08, 08:33:01,VALID,919.284,VALID,0,VALID,100,VALID,-0.0339617,VALID,19.3455,VALID,260,VALID,0,
2006-10-08, 08:34:00,VALID,919.271,VALID,0,VALID,100,VALID,-0.0169808,VALID,19.3882,VALID,260,VALID,0.00093006,
2006-10-08, 08:35:00,VALID,919.264,VALID,0,VALID,100,VALID,-0.0169808,VALID,19.4202,VALID,260,VALID,0.0864583,
2006-10-08, 08:36:01,VALID,919.25,VALID,0,VALID,100,VALID,0,VALID,19.4565,VALID,260,VALID,0,
2006-10-08, 08:37:00,VALID,919.259,VALID,0,VALID,100,VALID,-0.0339617,VALID,19.4689,VALID,260,VALID,0,
2006-10-08, 08:38:00,VALID,919.24,VALID,0,VALID,100,VALID,-0.101885,VALID,19.4763,VALID,260,VALID,0,
2006-10-08, 08:39:00,VALID,919.237,VALID,0,VALID,100,VALID,-0.101885,VALID,19.4989,VALID,260,VALID,0,
2006-10-08, 08:40:01,VALID,919.223,VALID,0,VALID,100,VALID,-0.118866,VALID,19.5158,VALID,260,VALID,0,
2006-10-08, 08:41:01,VALID,919.225,VALID,0,VALID,100,VALID,-0.118866,VALID,19.4892,VALID,260,VALID,0,
2006-10-08, 08:42:00,VALID,919.231,VALID,0,VALID,100,VALID,-0.152827,VALID,19.5217,VALID,260,VALID,0,
2006-10-08, 08:43:01,VALID,919.224,VALID,0,VALID,100,VALID,-0.101885,VALID,19.5277,VALID,260,VALID,0,
2006-10-08, 08:44:00,VALID,919.239,VALID,0,VALID,100,VALID,-0.101885,VALID,19.551,VALID,260,VALID,0.0457589,
2006-10-08, 08:45:01,VALID,919.236,VALID,0,VALID,100,VALID,-0.101885,VALID,19.5674,VALID,260,VALID,0.111421,
2006-10-08, 08:46:01,VALID,919.234,VALID,0,VALID,100,VALID,-0.152827,VALID,19.5863,VALID,260,VALID,0,
2006-10-08, 08:47:01,VALID,919.238,VALID,0,VALID,100,VALID,-0.118866,VALID,19.6285,VALID,260,VALID,0,
2006-10-08, 08:48:00,VALID,919.232,VALID,0,VALID,100,VALID,-0.152827,VALID,19.635,VALID,260,VALID,0,
2006-10-08, 08:49:00,VALID,919.236,VALID,0,VALID,100,VALID,-0.118866,VALID,19.6479,VALID,260,VALID,0,
2006-10-08, 08:50:01,VALID,919.217,VALID,0,VALID,100,VALID,-0.0849042,VALID,19.6253,VALID,260,VALID,0,
2006-10-08, 08:51:00,VALID,919.191,VALID,0,VALID,100,VALID,-0.118866,VALID,19.6121,VALID,260,VALID,0,
2006-10-08, 08:52:00,VALID,919.181,VALID,0,VALID,100,VALID,-0.101885,VALID,19.5858,VALID,260,VALID,0,
2006-10-08, 08:53:00,VALID,919.164,VALID,0,VALID,100,VALID,-0.0169808,VALID,19.5714,VALID,260,VALID,0,
2006-10-08, 08:54:01,VALID,919.145,VALID,0,VALID,100,VALID,0,VALID,19.5786,VALID,260,VALID,0,
2006-10-08, 08:55:01,VALID,919.134,VALID,0,VALID,100,VALID,-0.0339617,VALID,19.5791,VALID,260,VALID,0.184103,
2006-10-08, 08:56:01,VALID,919.121,VALID,0,VALID,100,VALID,0,VALID,19.5501,VALID,260,VALID,0.126758,
2006-10-08, 08:57:00,VALID,919.118,VALID,0,VALID,100,VALID,-0.0169808,VALID,19.5334,VALID,259,VALID,0.392531,
2006-10-08, 08:58:01,VALID,919.106,VALID,0,VALID,100,VALID,0,VALID,19.5391,VALID,259,VALID,0.0301599,
2006-10-08, 08:59:00,VALID,919.1,VALID,0,VALID,100,VALID,-0.0169808,VALID,19.5588,VALID,259,VALID,0,
2006-10-08, 09:00:01,VALID,919.099,VALID,0,VALID,100,VALID,0,VALID,19.6012,VALID,259,VALID,0.0237926,
2006-10-08, 09:01:01,VALID,919.088,VALID,0,VALID,100,VALID,0,VALID,19.6067,VALID,259,VALID,0.00090843,
2006-10-08, 09:02:01,VALID,919.088,VALID,0,VALID,100,VALID,-0.0169808,VALID,19.6298,VALID,259,VALID,0,
2006-10-08, 09:03:00,VALID,919.084,VALID,0,VALID,100,VALID,0,VALID,19.6558,VALID,259,VALID,0,
2006-10-08, 09:04:01,VALID,919.077,VALID,0,VALID,100,VALID,-0.0339617,VALID,19.6551,VALID,259,VALID,0,
2006-10-08, 09:05:00,VALID,919.07,VALID,0,VALID,100,VALID,0,VALID,19.6816,VALID,259,VALID,0,
2006-10-08, 09:06:01,VALID,919.072,VALID,0,VALID,100,VALID,0,VALID,19.7075,VALID,259,VALID,0.0260417,
2006-10-08, 09:07:01,VALID,919.061,VALID,0,VALID,100,VALID,0,VALID,19.7201,VALID,259,VALID,0,
2006-10-08, 09:08:01,VALID,919.049,VALID,0,VALID,100,VALID,0,VALID,19.7204,VALID,259,VALID,0,
2006-10-08, 09:09:01,VALID,919.044,VALID,0,VALID,100,VALID,0,VALID,19.7134,VALID,259,VALID,0,
2006-10-08, 09:10:01,VALID,919.04,VALID,0,VALID,100,VALID,-0.0169808,VALID,19.73,VALID,259,VALID,0,
2006-10-08, 09:11:01,VALID,919.031,VALID,0,VALID,100,VALID,-0.0169808,VALID,19.7457,VALID,259,VALID,0,
2006-10-08, 09:12:01,VALID,919.04,VALID,0,VALID,100,VALID,-0.0339617,VALID,19.7688,VALID,259,VALID,0,
2006-10-08, 09:13:01,VALID,919.032,VALID,0,VALID,100,VALID,-0.0169808,VALID,19.7452,VALID,259,VALID,0,
2006-10-08, 09:14:01,VALID,919.054,VALID,0,VALID,100,VALID,-0.0169808,VALID,19.7658,VALID,259,VALID,0,
2006-10-08, 09:15:01,VALID,919.058,VALID,0,VALID,100,VALID,-0.0339617,VALID,19.7655,VALID,259,VALID,0,
2006-10-08, 09:16:01,VALID,919.058,VALID,0,VALID,100,VALID,-0.0339617,VALID,19.7715,VALID,259,VALID,0.0170455,
2006-10-08, 09:17:01,VALID,919.071,VALID,0,VALID,100,VALID,0,VALID,19.8006,VALID,259,VALID,0.0917039,
2006-10-08, 09:18:01,VALID,919.088,VALID,0,VALID,100,VALID,-0.0339617,VALID,19.811,VALID,259,VALID,0.261446,
2006-10-08, 09:19:01,VALID,919.087,VALID,0,VALID,100,VALID,0,VALID,19.8107,VALID,259,VALID,0.340199,
2006-10-08, 09:20:01,VALID,919.087,VALID,0,VALID,100,VALID,0,VALID,19.7941,VALID,259,VALID,0.555246,
2006-10-08, 09:21:01,VALID,919.084,VALID,0,VALID,100,VALID,0,VALID,19.7874,VALID,260,VALID,0.666921,
2006-10-08, 09:22:01,VALID,919.077,VALID,0,VALID,100,VALID,-0.0169808,VALID,19.7713,VALID,260,VALID,0.401042,
2006-10-08, 09:23:01,VALID,919.071,VALID,0,VALID,100,VALID,-0.0169808,VALID,19.7621,VALID,268,VALID,0.857507,
2006-10-08, 09:24:01,VALID,919.074,VALID,0,VALID,100,VALID,0,VALID,19.7688,VALID,278,VALID,0.681504,
2006-10-08, 09:25:01,VALID,919.072,VALID,0,VALID,100,VALID,-0.0339617,VALID,19.7554,VALID,278,VALID,0.588956,
2006-10-08, 09:26:01,VALID,919.079,VALID,0,VALID,100,VALID,0,VALID,19.7618,VALID,278,VALID,0.508878,
2006-10-08, 09:27:01,VALID,919.083,VALID,0,VALID,100,VALID,0,VALID,19.7556,VALID,278,VALID,0.479226,
2006-10-08, 09:28:01,VALID,919.095,VALID,0,VALID,100,VALID,0,VALID,19.7591,VALID,278,VALID,0.208333,
2006-10-08, 09:29:01,VALID,919.092,VALID,0,VALID,100,VALID,-0.0679233,VALID,19.7556,VALID,278,VALID,0.132813,
2006-10-08, 09:30:01,VALID,919.089,VALID,0,VALID,100,VALID,-0.0509425,VALID,19.7519,VALID,278,VALID,0,
2006-10-08, 09:31:01,VALID,919.082,VALID,0,VALID,100,VALID,-0.0169808,VALID,19.7489,VALID,291,VALID,0.0868459,
2006-10-08, 09:32:01,VALID,919.074,VALID,0,VALID,100,VALID,-0.0679233,VALID,19.7494,VALID,297,VALID,0.0794588,
2006-10-08, 09:33:01,VALID,919.057,VALID,0,VALID,100,VALID,0,VALID,19.7688,VALID,297,VALID,0.00409226,
2006-10-08, 09:34:00,VALID,919.045,VALID,0,VALID,100,VALID,-0.0339617,VALID,19.7554,VALID,297,VALID,0.325,
2006-10-08, 09:35:00,VALID,919.04,VALID,0,VALID,100,VALID,-0.0169808,VALID,19.772,VALID,297,VALID,0.215511,
2006-10-08, 09:36:00,VALID,919.047,VALID,0,VALID,100,VALID,-0.0509425,VALID,19.7747,VALID,297,VALID,0.297238,
2006-10-08, 09:37:00,VALID,919.044,VALID,0,VALID,100,VALID,-0.0509425,VALID,19.7715,VALID,297,VALID,0.49564,
2006-10-08, 09:38:00,VALID,919.051,VALID,0,VALID,100,VALID,-0.0509425,VALID,19.7752,VALID,296,VALID,0.722656,
2006-10-08, 09:39:00,VALID,919.048,VALID,0,VALID,100,VALID,-0.0509425,VALID,19.7688,VALID,295,VALID,0.647195,
2006-10-08, 09:40:00,VALID,919.037,VALID,0,VALID,100,VALID,-0.0339617,VALID,19.7653,VALID,295,VALID,0.459872,
2006-10-08, 09:41:00,VALID,919.016,VALID,0,VALID,100,VALID,-0.0169808,VALID,19.7752,VALID,293,VALID,0.729056,
2006-10-08, 09:42:00,VALID,919.007,VALID,0,VALID,100,VALID,0,VALID,19.7814,VALID,284,VALID,0.857515,
2006-10-08, 09:43:00,VALID,918.996,VALID,0,VALID,100,VALID,-0.0169808,VALID,19.778,VALID,276,VALID,1.13653,
2006-10-08, 09:44:00,VALID,918.953,VALID,0,VALID,100,VALID,0,VALID,19.7648,VALID,278,VALID,1.19695,
2006-10-08, 09:45:00,VALID,918.945,VALID,0,VALID,100,VALID,0,VALID,19.7583,VALID,278,VALID,1.0087,
2006-10-08, 09:46:00,VALID,918.928,VALID,0,VALID,100,VALID,0,VALID,19.7516,VALID,282,VALID,0.994234,
2006-10-08, 09:47:00,VALID,918.928,VALID,0,VALID,100,VALID,-0.0169808,VALID,19.7618,VALID,276,VALID,1.01738,
2006-10-08, 09:48:00,VALID,918.928,VALID,0,VALID,100,VALID,0,VALID,19.7325,VALID,272,VALID,0.598958,
2006-10-08, 09:49:00,VALID,918.947,VALID,0,VALID,100,VALID,-0.0169808,VALID,19.7164,VALID,272,VALID,0.579613,
2006-10-08, 09:50:00,VALID,918.946,VALID,0,VALID,100,VALID,-0.0169808,VALID,19.7171,VALID,272,VALID,0.46875,
2006-10-08, 09:51:00,VALID,918.963,VALID,0,VALID,100,VALID,-0.0339617,VALID,19.7067,VALID,272,VALID,0.51543,
2006-10-08, 09:52:00,VALID,918.975,VALID,0,VALID,100,VALID,-0.0509425,VALID,19.7067,VALID,273,VALID,0.72619,
2006-10-08, 09:53:00,VALID,918.995,VALID,0,VALID,100,VALID,-0.0169808,VALID,19.7102,VALID,273,VALID,0.824405,
2006-10-08, 09:54:00,VALID,919.012,VALID,0,VALID,100,VALID,-0.0169808,VALID,19.7196,VALID,273,VALID,0.600374,
2006-10-08, 09:55:00,VALID,919.002,VALID,0,VALID,100,VALID,-0.0169808,VALID,19.7261,VALID,273,VALID,0.745508,
2006-10-08, 09:56:00,VALID,918.99,VALID,0,VALID,100,VALID,-0.0169808,VALID,19.7261,VALID,273,VALID,0.676054,
2006-10-08, 09:57:00,VALID,918.979,VALID,0,VALID,100,VALID,-0.0339617,VALID,19.7233,VALID,270,VALID,0.790264,
2006-10-08, 09:58:00,VALID,918.944,VALID,0,VALID,100,VALID,-0.0339617,VALID,19.7236,VALID,276,VALID,1.03125,
2006-10-08, 09:59:00,VALID,918.922,VALID,0,VALID,100,VALID,-0.0169808,VALID,19.707,VALID,279,VALID,0.925327,
2006-10-08, 10:00:00,VALID,918.906,VALID,0,VALID,100,VALID,0,VALID,19.7037,VALID,274,VALID,0.641183,
2006-10-08, 10:01:00,VALID,918.898,VALID,0,VALID,100,VALID,0,VALID,19.6744,VALID,256,VALID,0.662791,
2006-10-08, 10:02:00,VALID,918.898,VALID,0,VALID,100,VALID,0,VALID,19.6484,VALID,234,VALID,0.51123,
2006-10-08, 10:03:00,VALID,918.905,VALID,0,VALID,100,VALID,0,VALID,19.6357,VALID,238,VALID,0.170139,
2006-10-08, 10:04:00,VALID,918.902,VALID,0,VALID,100,VALID,0,VALID,19.6389,VALID,238,VALID,0,
2006-10-08, 10:05:00,VALID,918.902,VALID,0,VALID,100,VALID,-0.0169808,VALID,19.6419,VALID,238,VALID,0.00111607,
2006-10-08, 10:06:00,VALID,918.897,VALID,0,VALID,100,VALID,-0.0169808,VALID,19.6322,VALID,238,VALID,0.00218023,
2006-10-08, 10:07:00,VALID,918.881,VALID,0,VALID,100,VALID,0,VALID,19.6327,VALID,238,VALID,0.0172991,
2006-10-08, 10:08:00,VALID,918.873,VALID,0,VALID,100,VALID,-0.0339617,VALID,19.6424,VALID,238,VALID,0.040625,
2006-10-08, 10:09:00,VALID,918.865,VALID,0,VALID,100,VALID,-0.0169808,VALID,19.6551,VALID,238,VALID,0,
2006-10-08, 10:10:00,VALID,918.843,VALID,0,VALID,100,VALID,0,VALID,19.6653,VALID,239,VALID,0.0835756,
2006-10-08, 10:11:00,VALID,918.827,VALID,0,VALID,100,VALID,-0.0339617,VALID,19.6586,VALID,240,VALID,0.337536,
2006-10-08, 10:12:00,VALID,918.817,VALID,0,VALID,100,VALID,0,VALID,19.6581,VALID,240,VALID,0.418576,
2006-10-08, 10:13:00,VALID,918.813,VALID,0,VALID,100,VALID,-0.0169808,VALID,19.6747,VALID,240,VALID,0.512536,
2006-10-08, 10:14:00,VALID,918.806,VALID,0,VALID,100,VALID,-0.0169808,VALID,19.6521,VALID,240,VALID,0.440104,
2006-10-08, 10:15:00,VALID,918.808,VALID,0,VALID,100,VALID,-0.0169808,VALID,19.6231,VALID,240,VALID,0.333854,
2006-10-08, 10:16:00,VALID,918.807,VALID,0,VALID,100,VALID,0,VALID,19.6164,VALID,240,VALID,0.28924,
2006-10-08, 10:17:00,VALID,918.793,VALID,0,VALID,100,VALID,-0.0339617,VALID,19.6139,VALID,240,VALID,0.0933866,
2006-10-08, 10:18:00,VALID,918.775,VALID,0,VALID,100,VALID,-0.0679233,VALID,19.5972,VALID,240,VALID,0.0204613,
2006-10-08, 10:19:00,VALID,918.778,VALID,0,VALID,100,VALID,0,VALID,19.6034,VALID,240,VALID,0.00666921,
2006-10-08, 10:20:00,VALID,918.767,VALID,0,VALID,100,VALID,-0.0169808,VALID,19.6104,VALID,240,VALID,0.0401786,
2006-10-08, 10:21:00,VALID,918.767,VALID,0,VALID,100,VALID,0,VALID,19.6131,VALID,240,VALID,0.0329649,
2006-10-08, 10:22:00,VALID,918.759,VALID,0,VALID,100,VALID,-0.0169808,VALID,19.6069,VALID,240,VALID,0,
2006-10-08, 10:23:00,VALID,918.764,VALID,0,VALID,100,VALID,0.0339617,VALID,19.6025,VALID,240,VALID,0.000585938,
2006-10-08, 10:24:00,VALID,918.778,VALID,0,VALID,100,VALID,0.0169808,VALID,19.6029,VALID,240,VALID,0.0319767,
2006-10-08, 10:25:00,VALID,918.776,VALID,0,VALID,100,VALID,0.0679233,VALID,19.6092,VALID,240,VALID,0.0546875,
2006-10-08, 10:26:00,VALID,918.79,VALID,0,VALID,100,VALID,0.0679233,VALID,19.6124,VALID,240,VALID,0.0385174,
2006-10-08, 10:27:00,VALID,918.788,VALID,0,VALID,100,VALID,0.0339617,VALID,19.6218,VALID,240,VALID,0.205078,
2006-10-08, 10:28:00,VALID,918.798,VALID,0,VALID,100,VALID,0.0169808,VALID,19.6248,VALID,240,VALID,0.054878,
2006-10-08, 10:29:00,VALID,918.792,VALID,0,VALID,100,VALID,0.0339617,VALID,19.635,VALID,240,VALID,0.00692472,
2006-10-08, 10:30:00,VALID,918.786,VALID,0,VALID,100,VALID,0.0169808,VALID,19.6161,VALID,240,VALID,0,
2006-10-08, 10:31:00,VALID,918.782,VALID,0,VALID,100,VALID,0.0339617,VALID,19.6131,VALID,240,VALID,0.000173611,
2006-10-08, 10:32:00,VALID,918.768,VALID,0,VALID,100,VALID,0.0169808,VALID,19.5861,VALID,240,VALID,0.0257457,
2006-10-08, 10:33:00,VALID,918.764,VALID,0,VALID,100,VALID,0.0339617,VALID,19.5863,VALID,240,VALID,0,
2006-10-08, 10:34:00,VALID,918.737,VALID,0,VALID,100,VALID,0,VALID,19.6096,VALID,240,VALID,0,
2006-10-08, 10:35:00,VALID,918.735,VALID,0,VALID,100,VALID,0.0169808,VALID,19.5866,VALID,240,VALID,0.0241815,
2006-10-08, 10:36:00,VALID,918.721,VALID,0,VALID,100,VALID,0.0509425,VALID,19.5831,VALID,240,VALID,0.341388,
2006-10-08, 10:37:00,VALID,918.712,VALID,0,VALID,100,VALID,0,VALID,19.5806,VALID,240,VALID,0.465511,
2006-10-08, 10:38:00,VALID,918.702,VALID,0,VALID,100,VALID,-0.0509425,VALID,19.5781,VALID,240,VALID,0.454241,
2006-10-08, 10:39:00,VALID,918.694,VALID,0,VALID,100,VALID,-0.0679233,VALID,19.562,VALID,244,VALID,0.573171,
2006-10-08, 10:40:00,VALID,918.697,VALID,0,VALID,100,VALID,-0.0339617,VALID,19.5302,VALID,257,VALID,0.754001,
2006-10-08, 10:41:00,VALID,918.691,VALID,0,VALID,100,VALID,-0.0849042,VALID,19.482,VALID,257,VALID,0.33194,
2006-10-08, 10:42:00,VALID,918.685,VALID,0,VALID,100,VALID,-0.101885,VALID,19.4493,VALID,257,VALID,0.0560213,
2006-10-08, 10:43:00,VALID,918.682,VALID,0,VALID,100,VALID,-0.101885,VALID,19.4237,VALID,257,VALID,0.0399503,
2006-10-08, 10:44:00,VALID,918.663,VALID,0,VALID,100,VALID,-0.101885,VALID,19.4011,VALID,257,VALID,0,
2006-10-08, 10:45:00,VALID,918.645,VALID,0,VALID,100,VALID,-0.101885,VALID,19.3912,VALID,257,VALID,0.000887784,